Regional Weather Roundup
Issued by NWS

Home | Current Version | Previous Version | Graphics & Text | Print | Product List | Glossary On
Versions: 1 2 3 4 5 6 7 8 9 10 11 12 13 14 15 16 17 18 19 20 21 22 23 24 25 26 27 28 29 30 31 32 33 34 35 36 37 38 39 40 41 42 43 44 45 46 47 48 49 50
000
ASUS43 KTOP 241808
RWRKS

WEATHER ROUNDUP FOR KANSAS
NATIONAL WEATHER SERVICE GOODLAND KS
100 PM CDT FRI OCT 24 2014

NOTE:  "FAIR" INDICATES FEW OR NO CLOUDS BELOW 12,000 FEET WITH NO
SIGNIFICANT WEATHER AND/OR OBSTRUCTIONS TO VISIBILITY.

KSZ001>006-013>018-027>032-041>047-241900-
NORTHWEST KANSAS

CITY           SKY/WX    TMP DP  RH WIND       PRES   REMARKS
GOODLAND       MOSUNNY   86  34  15 NW7       30.10S
6HR MIN TEMP:  50; 6HR MAX TEMP:  86;

HAYS           SUNNY     79  59  50 SW8       30.03F
HILL CITY      SUNNY     84  49  29 VRB3      30.02F
6HR MIN TEMP:  49; 6HR MAX TEMP:  84;

RUSSELL        SUNNY     78  59  51 SW13      30.01F
6HR MIN TEMP:  56; 6HR MAX TEMP:  78;

$$

KSZ061>065-074>080-084>089-241900-
SOUTHWEST KANSAS

CITY           SKY/WX    TMP DP  RH WIND       PRES   REMARKS
DODGE CITY     SUNNY     81  52  36 SW9       30.08F
6HR MIN TEMP:  53; 6HR MAX TEMP:  81;

ELKHART          N/A     82  44  26 W8          N/A
GARDEN CITY    MOSUNNY   78  45  30 W12       30.08F
6HR MIN TEMP:  46; 6HR MAX TEMP:  78; 6HR PCP:  0.01;

GREAT BEND     SUNNY     75  61  60 SW9       30.04F
LIBERAL        SUNNY     81  54  39 SW8       30.12F
PRATT          SUNNY     75  61  60 SW8       30.07F
$$

KSZ066>073-081>083-090>101-241900-
SOUTHEAST KANSAS

CITY           SKY/WX    TMP DP  RH WIND       PRES   REMARKS
CHANUTE        CLOUDY    71  61  70 SW9       30.07F
6HR MIN TEMP:  56; 6HR MAX TEMP:  71;

COFFEYVILLE    CLOUDY    73  60  63 S9        30.07F
6HR MIN TEMP:  56; 6HR MAX TEMP:  74;

HUTCHINSON     PTSUNNY   75  61  61 S8        30.05F
6HR MIN TEMP:  58; 6HR MAX TEMP:  76;

MEDICINE LODGE   N/A     75  61  61 S6        30.05F
NEWTON         CLOUDY    72  61  68 SW13      30.07F
PARSONS        CLOUDY    73  61  65 SW8       30.08F
6HR MIN TEMP:  56; 6HR MAX TEMP:  73;

WICHITA INTL   CLOUDY    75  62  64 S13       30.05F
6HR MIN TEMP:  55; 6HR MAX TEMP:  75;

WICHITA JABRA  CLOUDY    73  61  65 S14       30.06S
6HR MIN TEMP:  57; 6HR MAX TEMP:  73;

WICHITA MCCONL CLOUDY    73  64  71 S10       30.06F
WINFIELD       PTSUNNY   71  61  70 S9        30.08F
6HR MIN TEMP:  56; 6HR MAX TEMP:  72;

$$

KSZ007>012-019>026-033>040-048>060-102>105-241900-
NORTHEAST KANSAS

CITY           SKY/WX    TMP DP  RH WIND       PRES   REMARKS
CONCORDIA      CLOUDY    72  62  71 SW9       30.00S
6HR MIN TEMP:  57; 6HR MAX TEMP:  72;

EMPORIA        CLOUDY    74  62  66 SW14      30.04F
6HR MIN TEMP:  56; 6HR MAX TEMP:  74;

LAWRENCE       CLOUDY    70  61  73 S10       30.02F
6HR MIN TEMP:  53; 6HR MAX TEMP:  70;

MANHATTAN      CLOUDY    73  63  70 SW13      30.00F
6HR MIN TEMP:  56; 6HR MAX TEMP:  73;

MARYSVILLE     CLOUDY    70  63  78 SW10      29.97F
OLATHE IND     CLOUDY    71  62  73 S14       30.04F
6HR MIN TEMP:  53; 6HR MAX TEMP:  71;

OLATHE EXE     CLOUDY    71  62  73 S9        30.03F
6HR MIN TEMP:  53; 6HR MAX TEMP:  71;

SALINA         CLOUDY    73  63  70 S9        30.02F
6HR MIN TEMP:  58; 6HR MAX TEMP:  73;

TOPEKA BILLARD CLOUDY    72  63  73 SW8       30.01F
6HR MIN TEMP:  58; 6HR MAX TEMP:  73;

TOPEKA FORBES  CLOUDY    72  62  71 SW14      30.01F
6HR MIN TEMP:  57; 6HR MAX TEMP:  72;

$$



USA.gov is the U.S. government's official web portal to all federal, state and local government web resources and services.